Location: Dal�� Lhota
(48.7500°N, 14.0167°E)
Time: 18:29:00
(UTC+00:00)

Transit 2A - Pass Details

Date: 31 July 2021
Orbit: 594 x 964 km, 66.7° (Epoch: 26 September)

Event Time Altitude Azimuth Distance (km) Brightness Sun altitude
Rises 07:31:35 0° 260° (W) 2,879 8.5 36.6°
Reaches altitude 10° 07:34:16 10° 277° (W) 2,015 7.8 37.1°
Maximum altitude 07:37:43 21° 327° (NNW) 1,478 7.3 37.6°
Drops below altitude 10° 07:41:25 10° 17° (NNE) 2,162 8.4 38.2°
Sets 07:44:25 0° 33° (NNE) 3,156 9.3 38.7°
